Theta_e
298 298 298 298 298 298 298 297 297 297 297 297 297 297 297 297 297 297 297 298 298 298 298 298 298 299 298 298 299 298 298 298 298 298 299 299 299 299 300 301 303 305 309 313 316 319 321 323 325 325 323 323 325 326 327 328 329 331 332 332 333 332 333 334 335 336 337 338 338 337 338 339 340 339 338 337 337 337 336 334 331 327 324 322 321
297 297 297 297 297 297 297 297 297 297 297 297 297 297 297 297 297 297 297 297 297 297 297 297 298 298 298 298 298 298 298 298 298 298 298 299 299 299 300 300 300 302 303 306 311 316 319 320 322 325 325 324 325 326 327 328 328 328 330 332 332 331 331 333 334 336 338 338 337 336 337 339 339 339 338 338 337 337 337 336 333 328 325 324 322
297 297 297 297 297 297 296 296 296 296 296 296 296 296 296 296 296 296 296 296 296 296 296 296 296 297 297 297 298 298 298 298 298 299 299 299 299 299 299 300 300 300 301 302 304 309 315 319 321 323 324 324 324 325 326 327 328 327 329 331 332 331 331 331 333 335 339 339 337 337 337 338 339 338 339 338 338 338 337 337 335 329 326 326 324
297 297 296 296 296 296 296 296 296 296 295 295 295 295 295 296 296 296 296 296 296 296 296 296 296 296 296 297 297 297 297 297 298 298 299 299 299 299 299 300 300 300 301 302 302 304 308 314 320 322 324 324 323 324 325 326 327 327 328 329 330 331 332 332 332 333 335 337 338 338 337 337 338 338 338 338 338 337 337 337 336 330 327 326 325
296 296 296 296 296 296 295 295 295 295 295 295 295 295 295 295 295 295 295 295 295 295 295 295 295 295 296 296 296 297 297 297 297 297 298 299 299 300 300 300 301 301 301 301 302 303 304 306 312 319 323 324 323 324 325 325 325 326 328 328 328 330 332 332 332 332 334 337 338 337 338 338 337 337 338 338 337 337 336 336 335 332 328 327 326
296 296 295 295 295 295 295 294 294 294 294 294 294 294 294 294 294 294 294 294 295 294 294 294 294 294 295 295 296 296 296 296 297 297 297 298 299 300 300 301 301 301 301 301 302 302 303 303 305 309 316 321 324 324 325 325 325 324 326 327 327 328 330 332 331 331 333 337 339 338 338 338 337 336 338 338 337 336 336 335 334 333 331 328 327
295 295 295 295 294 294 294 294 294 294 293 293 293 293 293 293 293 294 294 294 294 294 294 294 294 294 294 294 295 295 295 296 296 297 297 298 299 300 300 301 302 302 302 302 302 302 303 303 303 304 306 312 319 324 326 326 327 326 325 325 325 326 328 331 332 331 331 333 337 338 337 338 338 337 337 337 336 335 334 334 333 332 332 329 327
295 295 294 294 293 293 293 293 293 293 293 293 292 292 292 292 292 292 293 293 293 293 293 293 293 293 294 294 294 294 295 295 296 296 297 297 298 299 300 301 301 302 302 302 303 303 302 302 303 304 304 305 309 317 324 326 327 327 326 324 324 325 326 329 330 330 331 332 335 338 337 337 338 337 336 336 336 336 334 334 332 332 332 330 327
294 294 293 293 293 293 292 292 292 292 292 292 292 292 292 292 292 291 291 291 292 292 292 292 292 293 293 294 294 294 294 295 296 296 296 297 298 299 299 300 301 301 302 303 303 303 303 303 303 303 304 305 305 308 316 324 327 327 328 327 325 325 326 327 328 329 330 331 334 337 337 337 338 338 336 336 336 335 335 334 333 333 333 331 328
293 293 293 293 292 292 292 292 292 292 292 292 292 292 292 291 291 291 291 291 291 291 291 291 292 292 293 293 294 294 294 294 295 296 296 297 298 299 299 299 300 300 300 301 302 302 303 303 303 303 303 304 304 305 308 316 324 327 327 328 327 325 325 326 327 327 327 329 331 333 337 338 338 338 336 336 336 335 334 334 333 333 332 331 329
293 293 293 292 292 292 292 292 291 291 291 291 292 292 292 291 291 291 290 290 290 290 291 291 291 291 292 293 293 293 294 294 294 295 295 296 297 298 298 298 298 298 299 299 300 301 301 302 302 303 303 302 303 304 305 308 316 324 327 328 328 327 325 326 327 327 325 327 328 329 335 339 338 338 337 336 336 334 334 333 333 333 332 331 330
293 292 292 292 292 292 291 291 291 291 291 291 291 291 291 291 290 290 290 290 290 290 290 290 291 291 292 292 292 293 293 294 294 294 295 296 297 297 297 297 296 297 297 298 299 300 300 300 301 301 302 302 302 303 304 304 308 316 323 326 328 328 326 325 326 327 324 325 327 326 331 337 337 337 337 336 336 334 334 333 333 332 331 330 329
292 292 292 292 292 291 291 291 290 290 290 291 291 291 291 290 290 290 290 289 289 289 289 290 290 291 291 291 291 293 293 294 294 295 296 297 297 297 297 296 295 296 297 297 298 298 299 299 300 300 301 302 302 301 302 303 304 308 315 322 326 327 327 325 325 326 325 324 326 326 326 333 337 337 337 336 336 335 334 333 332 332 331 330 328
292 292 292 292 291 291 290 290 290 290 290 290 291 291 291 290 290 290 289 289 289 289 289 289 290 290 290 291 292 293 293 294 296 297 298 298 298 297 296 295 295 296 296 296 296 297 297 298 298 299 300 300 300 300 300 302 303 304 307 314 322 325 326 326 325 326 326 323 325 326 323 329 336 337 338 337 336 335 334 333 332 331 330 329 328
292 292 292 291 291 290 290 290 290 290 290 290 291 291 291 290 290 289 289 289 289 289 289 289 289 289 290 291 292 293 293 296 298 298 297 296 296 296 296 296 296 295 295 296 296 297 298 299 299 300 301 302 301 299 299 301 302 304 306 307 312 319 322 325 326 327 327 324 323 325 323 326 333 337 338 337 336 336 334 334 332 332 331 329 327
292 291 291 291 290 290 290 290 290 290 290 290 290 290 290 290 290 289 289 289 289 289 289 289 289 289 290 291 292 293 295 296 296 294 294 294 295 295 296 295 295 295 295 295 296 296 297 298 298 299 300 302 302 301 301 303 304 304 308 309 306 309 315 320 325 327 327 325 322 323 325 325 329 335 338 337 337 336 335 334 333 332 331 329 327
292 291 291 290 290 289 290 290 289 290 290 290 290 290 290 290 290 289 289 289 289 289 289 289 289 289 289 290 291 293 294 294 293 293 293 294 295 295 294 295 295 295 295 295 295 295 296 296 297 298 297 298 300 301 303 306 310 308 310 314 310 306 307 312 321 326 327 327 324 323 324 325 327 333 337 337 337 336 335 334 334 333 330 328 328
291 291 290 290 289 289 289 289 289 289 290 290 290 290 290 290 290 289 289 289 289 289 289 288 288 288 289 289 290 291 292 291 292 294 293 292 293 293 294 295 296 296 296 296 295 295 296 296 296 297 297 297 297 299 300 302 309 313 315 316 314 313 311 308 312 321 326 327 327 324 323 323 325 330 335 337 336 336 336 334 333 332 330 328 328
291 291 290 290 290 289 289 289 289 290 290 290 290 290 290 290 290 289 289 289 288 288 288 288 288 288 288 289 289 289 290 290 291 293 293 293 293 293 293 294 294 294 295 297 296 296 296 296 296 296 297 299 299 298 297 298 301 308 314 315 315 318 319 314 309 313 321 325 327 326 325 323 323 327 333 337 337 336 336 334 333 332 330 329 328
291 290 290 289 289 289 289 289 289 290 290 290 290 290 290 290 290 289 289 289 289 288 288 288 288 288 288 288 288 288 289 289 290 292 293 293 293 293 293 293 293 293 293 295 297 297 297 296 297 297 297 300 300 299 297 297 297 299 305 311 313 314 317 318 315 311 314 321 325 327 327 325 325 327 330 333 335 337 336 334 333 332 331 329 327
290 290 289 289 289 289 289 289 289 290 290 290 290 290 290 290 289 289 289 289 288 288 288 288 287 287 288 288 287 288 288 289 289 291 291 292 292 292 292 293 293 293 293 294 296 297 298 298 298 299 298 298 299 301 301 300 300 298 298 304 309 312 314 315 316 314 312 316 321 324 326 327 327 326 327 329 332 335 337 335 334 333 331 330 328
289 289 289 289 289 289 289 290 290 290 290 290 290 290 289 289 289 289 289 288 288 287 287 287 287 287 287 287 287 287 287 288 288 289 290 291 291 292 292 293 293 293 294 295 295 296 297 297 298 298 299 298 298 301 303 303 302 300 299 298 301 308 315 317 317 317 313 313 318 321 323 325 325 325 324 324 328 333 336 335 335 334 332 330 328
289 289 289 289 289 289 290 290 290 290 290 290 290 289 289 289 289 288 288 288 287 286 286 286 286 286 286 286 286 286 286 287 287 288 288 289 290 291 291 291 292 293 294 294 295 296 296 297 297 297 298 299 299 299 301 302 303 303 303 301 298 302 315 321 321 321 317 314 316 319 321 323 322 323 323 324 328 333 335 334 334 333 331 330 328
289 289 289 289 289 289 290 290 290 290 290 290 289 289 289 289 288 288 287 287 286 285 285 285 284 284 285 285 285 285 285 286 286 286 286 287 288 289 290 291 291 292 292 293 294 295 295 296 297 297 297 298 299 298 299 301 301 302 302 301 299 301 313 321 322 322 321 318 318 319 320 321 320 321 323 325 330 335 336 334 334 333 332 330 328
289 289 289 289 289 289 289 289 289 289 289 289 289 289 288 288 287 287 286 286 285 284 284 283 283 283 283 284 284 284 284 284 285 285 285 286 287 288 289 290 290 291 291 292 294 294 295 296 297 297 297 297 298 298 299 299 299 300 300 300 299 300 309 317 319 320 322 322 321 321 322 321 320 319 322 326 331 335 336 335 335 334 333 331 328
289 289 289 289 289 289 289 289 289 289 289 289 289 288 288 287 286 286 285 284 284 283 283 282 282 282 282 282 283 283 283 283 283 283 284 285 286 287 288 288 289 290 290 291 293 294 295 296 296 297 297 297 298 297 298 298 299 299 299 299 298 298 302 309 313 315 318 321 323 322 321 322 320 319 320 325 331 335 335 335 336 334 332 331 329
289 289 289 289 289 289 289 289 289 289 289 288 288 287 286 285 285 284 284 284 283 283 282 282 282 282 281 281 281 282 282 282 282 282 283 284 285 285 286 287 287 288 289 290 291 293 294 295 294 295 297 297 297 298 298 298 299 299 299 300 299 298 298 301 306 309 312 318 322 322 321 321 321 319 319 323 328 335 337 335 336 334 330 329 328
289 289 289 289 289 289 289 289 288 288 288 287 287 286 285 284 284 284 283 283 283 282 282 281 282 282 281 281 281 281 281 281 281 282 283 283 284 284 284 285 286 287 288 289 291 291 293 294 294 293 295 297 297 297 297 297 298 299 299 301 301 299 297 297 300 306 310 313 319 323 323 322 322 321 322 323 325 332 336 335 335 334 330 328 326
289 289 289 289 289 289 288 288 288 287 287 286 285 285 284 284 284 284 283 283 283 282 282 281 281 281 281 280 280 280 280 280 281 281 282 282 282 283 283 284 285 286 288 289 290 291 292 294 295 294 294 297 297 297 297 298 299 300 301 302 301 300 299 298 298 304 309 309 314 321 323 324 324 322 323 326 327 330 334 334 333 332 330 328 327
289 289 289 288 288 288 288 287 287 286 286 285 285 285 284 284 284 284 284 283 282 282 281 281 281 280 280 280 280 280 280 280 280 280 281 280 281 281 282 283 284 285 287 288 290 290 291 293 294 294 294 296 297 297 298 298 299 300 301 302 302 301 301 300 300 306 310 309 311 318 323 324 325 323 323 328 329 329 331 333 332 331 329 328 327
288 288 288 288 287 287 287 286 286 286 285 285 285 285 285 285 285 284 283 282 280 280 280 280 279 279 279 279 279 279 279 279 279 279 280 279 280 281 282 283 284 284 285 287 289 289 290 291 292 292 293 294 296 296 297 298 298 298 298 299 300 301 302 301 302 306 310 311 312 317 322 323 324 324 325 329 330 328 328 331 331 329 328 327 326
288 288 288 287 287 286 286 286 285 285 285 285 285 285 285 285 285 284 283 281 279 279 279 279 278 278 278 278 278 279 278 279 279 279 279 279 280 281 281 282 283 285 285 286 288 288 289 289 290 291 292 292 293 294 296 298 298 297 297 297 297 299 301 303 303 304 308 312 314 317 322 323 323 324 325 327 329 327 326 330 331 328 326 325 325
288 288 287 287 286 286 286 285 285 285 285 285 285 285 285 285 285 284 283 282 280 279 278 278 277 277 277 278 278 278 277 277 278 277 278 279 280 280 281 281 282 283 284 285 286 287 287 288 289 290 291 292 293 293 294 296 297 297 297 296 296 298 299 301 303 305 306 310 314 318 322 323 323 325 325 326 328 328 326 329 331 328 326 325 323
288 287 287 286 286 286 285 285 285 285 285 285 286 285 285 285 285 285 284 283 281 280 278 277 276 276 276 277 277 276 276 276 276 276 277 277 278 279 279 280 280 281 282 283 284 284 285 286 288 289 289 291 293 294 294 296 297 297 297 296 296 298 299 299 300 303 306 309 313 317 320 322 323 324 325 325 328 328 326 326 328 328 327 325 323
287 287 286 286 286 285 285 285 285 285 285 286 286 286 286 286 285 285 284 283 282 280 279 277 275 274 275 275 274 274 275 275 275 275 275 276 277 278 278 278 279 280 281 281 282 282 282 284 285 286 287 290 292 293 295 296 297 298 298 297 298 300 300 299 298 300 303 308 312 316 318 320 322 323 325 325 327 328 327 325 326 327 327 325 324
287 286 286 285 285 284 284 284 285 285 286 286 286 286 285 285 285 285 284 283 282 281 278 276 274 272 272 272 272 272 273 274 274 274 274 275 276 277 277 278 278 279 279 279 280 280 281 282 283 284 286 288 290 292 293 295 297 298 297 297 298 300 300 300 298 298 300 304 309 315 318 319 320 322 324 326 327 328 327 326 326 326 326 325 324
286 286 285 285 284 284 284 285 285 286 286 286 285 285 285 284 284 284 283 283 282 279 276 273 272 271 270 270 270 271 272 272 273 273 273 274 275 276 277 277 277 277 277 277 278 278 280 282 283 284 286 289 291 292 293 293 296 297 296 294 295 298 299 299 298 298 300 302 307 312 316 317 319 321 323 325 326 327 327 327 326 325 325 325 323
286 285 285 284 284 284 284 285 285 285 285 285 285 284 284 284 283 283 283 282 280 277 273 271 271 270 270 270 270 270 271 271 272 272 273 274 274 275 276 276 277 277 277 276 277 278 280 282 283 285 288 290 292 294 294 294 296 297 296 295 295 297 298 298 298 298 300 302 305 309 313 316 318 320 322 324 326 327 327 327 326 325 324 324 323
285 285 284 283 283 284 285 285 285 285 285 284 284 284 283 283 283 282 281 280 277 274 272 271 271 271 271 271 271 271 271 271 271 272 273 273 274 275 275 276 276 276 276 276 277 278 280 282 284 285 288 291 293 296 296 295 296 296 295 295 295 296 298 298 297 299 301 303 306 308 310 314 318 320 322 324 326 327 327 327 327 325 324 323 322
285 284 283 283 283 284 284 285 285 284 284 284 283 283 283 282 282 280 278 276 274 272 271 271 271 271 271 271 272 272 272 272 272 272 273 273 274 274 275 275 276 276 276 276 277 278 279 281 283 285 288 291 294 296 297 296 296 295 294 295 297 298 299 299 298 299 302 304 305 306 309 313 317 319 321 323 325 327 327 327 326 325 323 322 321
284 283 283 283 283 284 284 284 284 284 284 283 283 282 282 281 280 277 273 272 271 271 271 271 271 271 271 272 272 272 272 273 273 273 273 274 274 274 275 275 275 276 276 276 277 278 279 281 283 285 287 290 293 295 296 295 295 295 294 295 297 298 299 299 299 299 302 304 305 306 309 313 316 318 320 323 325 327 328 327 326 325 323 322 321
284 283 282 283 283 283 284 283 283 283 283 283 282 282 281 280 277 274 272 271 271 271 271 271 271 271 272 272 272 273 273 273 274 274 274 275 275 275 276 276 276 276 276 276 277 277 279 280 282 284 286 288 291 294 295 295 295 295 294 294 296 297 298 299 299 300 302 304 305 308 311 313 315 318 320 323 325 326 327 326 325 324 323 322 321
283 283 282 282 283 283 283 283 283 283 282 282 282 281 281 279 275 272 271 271 271 271 271 271 271 272 272 272 273 273 274 274 274 274 275 275 276 276 277 277 277 277 277 278 278 278 279 280 281 283 284 286 289 292 294 294 294 294 293 294 295 296 297 298 298 300 302 303 305 309 312 313 315 318 320 322 325 325 325 325 325 323 322 321 320
283 282 282 282 283 283 283 282 282 282 282 281 281 281 280 278 274 271 271 271 271 272 272 272 272 272 272 273 273 274 274 274 275 275 275 276 276 276 277 277 278 278 278 279 279 279 280 280 281 282 283 285 287 290 292 293 294 293 293 293 295 295 295 296 296 298 301 302 304 309 313 314 315 317 320 322 324 325 325 325 324 322 321 320 319
282 282 282 282 282 282 282 282 282 281 281 281 281 281 280 277 273 271 272 272 272 272 272 272 272 272 273 273 273 274 274 275 276 276 276 276 276 277 277 277 278 278 278 279 279 280 280 281 281 282 283 284 285 288 291 293 293 293 293 293 294 294 295 295 295 297 300 302 303 305 310 315 316 317 320 322 323 325 325 325 324 322 320 320 319
282 281 282 282 282 282 281 281 281 281 281 281 280 281 279 276 273 272 272 272 272 272 272 272 272 272 273 273 274 274 275 275 276 276 277 277 277 277 277 277 278 278 278 278 279 279 280 280 281 281 282 283 284 287 289 291 293 293 293 293 294 294 294 294 294 296 299 301 302 302 305 312 317 318 319 322 323 324 324 324 324 322 321 320 319
281 281 281 281 281 281 281 281 281 280 280 280 280 280 279 276 273 272 272 272 272 272 272 272 272 273 273 273 273 274 274 275 275 276 277 278 278 278 278 278 278 278 278 278 278 278 279 279 280 281 282 283 285 286 288 290 291 292 292 292 293 293 294 293 294 296 298 301 302 301 302 309 317 319 319 322 323 323 324 324 323 322 321 320 320
281 281 281 281 281 281 281 280 280 280 280 280 280 280 278 275 272 272 272 272 272 272 272 272 272 272 272 273 273 273 274 274 275 276 277 278 278 279 279 278 279 279 279 279 279 278 278 279 280 281 283 284 285 286 287 289 290 292 291 291 292 293 293 293 293 295 298 300 302 302 302 308 317 320 320 322 322 322 323 322 322 322 321 320 319
281 280 280 280 280 280 280 280 280 280 280 279 279 279 277 273 272 272 272 272 273 273 273 273 273 273 273 273 273 273 274 274 275 275 276 277 278 279 279 279 279 279 279 280 279 279 279 280 280 282 283 285 286 287 288 289 290 290 290 291 292 293 293 293 293 294 297 300 303 303 302 308 317 321 320 321 322 321 321 321 321 320 320 319 318
280 280 280 280 280 280 280 279 279 280 280 279 279 278 275 273 272 273 273 273 273 273 273 273 273 273 273 273 273 273 273 274 274 275 276 277 277 278 279 279 280 280 280 280 280 280 280 280 281 282 284 286 288 288 289 289 290 290 291 291 292 292 293 293 293 293 296 299 303 303 302 307 317 320 319 319 320 320 320 320 319 319 319 318 318
280 280 279 279 280 279 279 280 279 279 279 279 278 276 274 272 272 273 273 273 273 274 273 273 273 273 273 273 273 273 273 274 274 275 276 277 278 279 279 279 280 280 281 281 281 280 280 280 281 284 286 287 288 289 290 290 290 290 291 291 291 292 292 293 293 293 295 298 302 303 302 308 316 318 319 319 317 317 319 319 318 319 318 318 317
Wind_Speed
14 15 16 17 18 19 20 22 22 23 24 24 24 25 26 26 27 27 27 27 27 28 29 30 31 32 33 33 32 31 31 30 30 30 32 34 37 40 42 44 46 47 48 48 48 48 49 48 48 47 46 43 43 44 45 44 44 42 43 43 42 43 45 45 45 47 49 51 49 45 46 47 47 48 47 44 43 43 40 36 35 34 31 30 30
14 16 17 18 19 20 21 22 23 24 24 25 25 26 26 27 27 28 29 29 29 30 30 31 31 32 34 35 35 35 34 34 33 32 32 33 35 38 40 41 43 45 48 49 49 48 49 49 48 48 49 46 43 44 46 46 46 45 44 43 43 45 46 46 45 46 48 51 51 48 48 49 49 49 48 47 46 45 42 39 38 37 34 31 31
15 16 17 18 19 20 21 22 23 24 24 25 26 26 27 27 27 28 28 29 30 31 32 32 32 32 33 34 36 36 36 36 36 36 35 34 34 36 38 40 41 43 45 47 49 49 49 49 49 49 50 49 46 44 46 47 47 48 46 43 42 44 46 47 46 46 49 54 54 50 51 51 51 51 51 50 49 46 43 41 40 39 36 32 33
15 16 17 18 19 20 21 22 23 24 25 26 26 27 27 28 28 29 29 29 30 31 32 33 34 34 34 34 35 36 37 37 37 37 37 37 37 36 37 38 40 42 43 45 47 49 50 50 50 50 50 51 50 47 47 49 49 49 49 47 45 43 44 46 46 46 48 53 56 53 53 53 51 53 53 52 52 48 45 44 42 41 37 34 34
16 16 17 18 19 20 21 22 23 24 25 26 27 27 28 28 29 30 30 31 32 32 33 34 34 35 35 35 35 35 35 36 37 37 38 39 39 39 39 38 39 41 42 43 45 47 50 51 51 52 52 51 51 50 49 49 51 51 50 51 49 45 44 45 46 45 45 50 57 56 55 56 54 54 55 54 53 50 48 46 44 42 39 36 35
16 17 18 19 20 21 22 22 23 25 26 27 27 28 28 29 29 30 30 31 32 33 34 35 35 36 36 36 36 35 35 36 36 37 38 39 40 41 41 41 40 40 41 42 43 45 47 50 51 52 53 53 53 53 52 51 51 53 52 52 52 50 46 45 45 45 45 49 56 58 58 59 57 57 57 55 54 52 50 48 46 44 41 38 37
16 17 18 19 20 22 22 23 24 25 26 27 28 28 29 29 29 30 30 31 32 32 33 34 35 36 37 37 37 37 36 35 36 37 38 39 40 40 41 42 42 42 42 42 42 43 44 46 49 50 51 53 54 55 55 54 52 52 53 53 54 54 50 46 45 45 45 47 54 58 59 60 60 59 58 56 55 54 51 50 48 44 42 41 40
16 17 19 20 21 22 23 24 25 26 27 28 29 30 30 30 30 31 31 32 32 33 33 34 35 36 36 37 38 38 38 37 36 36 37 38 39 38 39 40 42 43 44 44 44 44 43 44 46 48 49 51 53 55 56 56 55 53 52 53 54 55 53 50 47 46 45 45 50 59 61 62 63 61 59 58 58 57 54 52 49 45 43 44 42
17 19 20 21 22 23 24 25 26 27 28 29 30 31 32 32 32 32 32 33 33 34 34 35 36 37 37 38 39 40 40 39 39 38 38 38 38 39 40 38 38 39 41 44 45 46 46 45 44 46 48 49 51 53 56 58 58 56 53 52 53 54 54 53 51 47 46 45 46 56 62 63 64 63 61 61 60 60 58 54 51 49 47 47 45
18 20 21 22 23 24 25 26 27 28 29 31 32 33 33 34 34 33 33 33 34 34 34 36 37 38 39 40 40 42 43 43 42 40 39 40 41 40 38 37 37 38 40 41 43 45 47 48 47 45 46 48 50 51 54 57 59 60 57 53 52 53 54 55 54 51 49 48 46 50 60 66 65 65 65 64 63 62 60 57 54 53 51 49 48
19 21 22 23 24 25 26 27 28 29 30 31 32 34 35 35 36 35 34 34 33 34 34 36 38 39 41 42 43 43 44 45 43 41 41 41 40 38 36 37 42 44 45 45 45 44 45 47 48 49 47 46 47 49 52 55 58 61 62 58 54 52 53 54 55 54 52 51 48 48 56 65 66 65 66 66 65 64 62 60 58 56 54 53 51
19 21 23 24 25 26 26 27 28 29 31 32 33 34 35 36 36 36 36 35 35 35 35 36 39 41 42 43 45 46 45 43 41 40 40 37 35 36 39 43 48 49 48 48 48 48 46 45 46 48 50 48 46 47 50 53 56 60 63 63 59 54 53 54 55 57 56 53 51 50 53 62 67 68 69 69 68 66 65 62 61 59 57 56 55
20 21 23 24 25 26 27 27 28 29 31 32 33 34 35 36 36 36 37 36 36 35 35 37 38 40 43 47 48 45 42 42 42 38 34 33 33 36 41 48 49 45 44 45 47 48 48 47 46 45 48 49 48 47 48 51 53 57 61 64 64 59 54 53 55 58 58 56 53 51 53 58 67 74 74 72 70 68 67 64 61 61 60 60 57
20 22 23 24 25 26 27 27 27 29 31 33 34 35 35 36 36 36 36 37 37 36 36 36 35 38 43 48 46 42 42 38 32 28 24 26 31 36 42 47 46 43 43 46 46 46 46 47 47 47 46 47 48 48 47 49 52 54 57 61 65 63 57 53 53 56 59 58 54 52 54 56 64 75 78 74 71 69 69 67 63 63 63 62 60
21 22 23 24 25 26 26 26 26 28 31 33 34 35 35 36 36 36 36 37 38 38 38 36 36 39 37 35 36 41 43 27 14 18 25 31 36 37 40 42 44 47 48 48 47 45 43 43 44 45 44 43 45 47 47 47 49 51 53 55 60 63 60 54 50 51 55 59 57 54 55 56 59 72 79 74 72 70 69 69 67 67 66 63 63
21 22 23 24 25 26 26 26 26 28 31 33 34 34 35 36 35 36 36 38 38 38 38 37 37 36 30 29 30 30 29 22 25 38 38 34 34 32 35 41 46 48 47 47 48 47 46 45 45 45 43 42 43 44 45 45 45 47 49 50 53 57 59 57 52 49 51 57 59 56 56 56 55 66 78 76 73 74 72 71 70 69 68 68 67
21 22 24 25 25 26 26 26 26 28 30 32 33 34 35 36 36 36 36 37 38 39 40 39 38 35 30 29 24 18 23 30 40 48 42 33 33 35 37 38 40 43 44 48 50 50 51 50 48 47 47 47 46 44 43 42 40 42 45 47 48 51 56 57 55 51 49 53 57 58 58 58 55 60 73 78 77 77 75 73 73 70 69 72 69
21 23 24 24 25 25 25 25 26 28 30 32 33 34 36 37 37 37 37 36 38 39 41 40 39 38 35 31 25 22 30 35 33 37 45 45 41 40 37 33 34 38 41 45 48 49 49 49 49 49 49 50 51 50 49 45 42 39 41 44 45 47 51 56 58 55 51 51 54 59 60 60 58 58 68 80 81 77 75 76 75 71 71 74 72
22 23 24 24 24 24 24 24 26 28 30 31 33 34 35 37 37 37 37 37 37 40 41 41 39 38 37 34 32 30 31 33 29 29 39 47 46 43 41 41 41 42 40 40 42 45 48 50 52 52 49 46 47 50 53 52 50 46 43 44 46 46 48 52 58 59 56 53 52 57 60 61 60 58 63 77 85 79 73 76 76 71 73 75 72
22 23 23 23 23 23 24 25 26 28 30 32 33 34 35 36 38 38 39 39 39 40 41 41 40 39 37 35 34 32 29 28 28 26 28 38 47 47 43 43 44 45 44 40 39 39 43 45 46 47 45 42 43 46 52 55 55 56 53 49 49 49 50 51 55 60 60 58 55 55 59 61 60 58 58 65 79 81 73 72 74 73 74 74 72
21 22 22 22 22 23 24 26 28 30 31 33 34 36 37 38 39 40 40 41 41 41 42 41 40 39 37 35 33 31 30 27 26 26 27 31 40 46 44 40 40 45 44 40 39 37 37 38 38 40 42 45 45 42 43 48 51 57 60 58 53 49 51 53 54 59 61 61 60 57 58 59 59 59 56 55 65 78 77 71 73 75 74 74 73
21 21 21 21 22 24 25 27 29 31 33 35 36 38 39 40 41 42 42 43 42 42 42 41 40 38 35 33 30 28 28 28 25 24 26 27 32 41 46 39 35 39 40 37 38 36 35 36 37 39 41 45 46 40 39 42 45 51 58 61 60 53 49 50 53 57 60 62 62 61 60 59 59 58 58 56 58 71 79 73 72 77 76 75 75
20 21 21 21 23 24 26 28 31 33 35 37 38 39 41 42 43 43 44 44 43 42 41 40 38 36 33 29 27 26 26 27 28 26 26 26 28 34 41 42 40 40 40 38 38 38 39 39 40 41 42 42 43 41 41 42 42 43 47 54 59 57 51 47 48 54 59 61 62 63 63 61 60 58 59 58 57 67 79 75 71 76 77 76 76
20 21 22 23 24 26 28 30 33 35 38 39 40 41 42 43 44 44 44 44 43 41 39 39 36 33 32 28 25 27 27 28 30 30 29 28 29 32 35 39 44 48 44 37 36 38 40 40 40 41 42 42 43 43 42 43 44 42 44 49 54 57 56 49 46 48 54 59 61 62 63 62 60 60 61 58 58 67 76 73 70 74 76 75 76
21 22 23 25 26 28 30 33 35 38 40 41 41 42 42 43 43 44 44 43 42 40 38 37 35 33 33 30 28 29 29 27 26 28 30 28 28 33 34 33 40 50 49 38 34 36 37 38 39 40 42 42 42 42 42 44 46 46 46 50 53 57 59 56 50 47 49 53 59 62 62 62 61 62 63 59 59 67 73 70 69 76 79 78 77
21 22 24 26 28 31 33 35 38 40 41 41 41 41 41 42 42 43 42 42 40 39 38 37 36 35 35 34 33 33 33 30 29 29 30 29 30 33 35 34 38 45 48 43 38 37 37 38 39 39 40 42 41 41 42 43 46 48 48 50 54 57 60 61 58 54 51 49 53 61 63 61 60 63 63 61 62 70 77 72 70 79 86 83 80
23 24 25 28 30 33 35 38 40 41 41 41 40 39 39 39 40 40 40 40 40 39 39 38 37 38 37 36 37 37 36 33 31 32 30 30 32 31 31 34 38 41 45 45 42 40 39 38 40 40 40 42 43 42 41 41 44 47 47 47 51 55 59 63 61 59 59 54 50 56 63 61 60 63 63 63 65 72 81 78 73 81 86 83 80
24 26 28 30 33 35 38 40 40 40 40 39 37 37 37 37 37 38 39 39 39 40 39 38 38 39 38 36 36 39 38 34 32 32 31 30 30 31 32 34 36 39 41 42 42 42 38 35 37 40 40 42 45 44 43 43 46 47 46 45 46 50 55 59 61 60 62 61 55 53 59 62 61 62 61 63 66 69 77 80 79 83 81 78 79
26 28 30 33 35 38 39 40 39 38 37 36 35 34 34 35 36 36 38 38 38 39 39 38 38 39 38 37 37 39 39 36 34 32 31 31 32 33 34 36 37 39 39 39 42 41 36 31 32 36 38 40 42 43 41 42 43 42 42 42 41 45 49 53 57 59 57 61 63 56 56 63 65 60 59 63 67 68 73 80 83 85 82 79 80
27 30 32 35 37 38 39 38 37 35 34 33 33 34 34 36 37 37 38 37 38 39 39 38 38 38 39 38 38 39 38 36 36 34 31 33 37 37 36 36 38 41 41 40 44 44 38 34 34 37 38 38 37 37 37 38 40 41 41 40 38 39 45 48 53 56 51 54 64 63 57 63 67 61 57 61 65 65 70 77 83 87 86 83 81
29 31 34 36 37 37 36 35 34 33 33 33 34 35 36 37 38 39 39 37 36 38 38 37 37 38 39 39 38 39 37 35 37 37 35 36 38 38 37 36 38 40 43 43 46 49 43 37 38 40 41 42 39 37 38 40 42 44 44 44 41 38 40 44 48 52 48 46 57 64 59 60 62 58 56 58 60 62 65 70 76 82 85 84 80
30 32 35 36 36 35 34 34 33 33 33 34 35 37 38 40 40 40 39 37 36 38 38 36 36 38 39 40 40 40 37 35 37 38 37 36 36 37 39 41 41 41 43 42 43 49 49 45 44 44 45 46 44 44 44 42 43 45 46 46 45 41 38 39 42 48 50 45 50 58 59 60 59 55 55 57 57 62 66 69 73 76 78 79 77
31 33 35 35 35 35 34 33 33 34 34 35 37 38 40 41 42 42 41 40 40 41 42 41 39 38 39 39 41 41 39 41 41 39 38 36 36 38 40 43 45 44 47 47 44 46 49 46 44 47 49 47 45 46 46 44 43 43 44 45 44 40 38 38 39 46 49 46 47 53 55 57 59 56 55 54 57 63 68 71 76 77 76 74 71
32 34 34 35 35 34 33 33 34 34 35 36 38 39 41 42 44 45 44 43 43 43 44 45 42 38 37 39 43 43 40 41 43 40 38 37 38 40 40 42 44 44 47 50 47 46 47 43 43 49 52 47 42 42 43 44 42 38 39 43 43 39 37 38 39 45 49 44 42 49 53 53 54 55 54 54 60 69 72 72 77 80 78 74 69
32 33 34 34 33 33 33 33 34 35 36 37 38 39 41 43 44 45 46 45 45 45 45 46 43 39 37 38 42 42 37 37 40 38 37 38 40 41 40 42 47 47 45 46 49 52 55 52 52 56 57 50 44 43 41 40 39 36 37 38 39 38 37 38 39 44 50 46 38 43 52 52 52 55 55 54 63 75 76 73 77 80 79 76 72
32 32 33 32 32 32 32 33 34 35 36 37 38 40 41 43 44 45 46 45 45 44 43 44 41 38 37 37 39 38 35 36 37 36 37 37 38 39 38 39 44 46 43 42 47 51 52 52 53 56 56 50 47 49 49 45 39 37 38 37 36 36 36 37 39 41 49 51 41 39 47 50 51 57 59 57 63 75 79 76 78 81 81 78 76
31 32 31 31 30 31 31 33 34 35 36 37 38 40 42 43 44 45 45 45 44 43 41 41 40 37 36 37 36 35 34 36 37 36 36 36 35 37 37 36 39 40 37 39 44 45 45 46 47 47 47 44 44 47 50 49 45 41 40 39 39 38 36 37 39 39 45 51 46 39 41 44 49 57 62 62 63 71 76 77 79 82 83 81 79
30 30 29 29 30 30 30 32 33 34 36 38 39 41 42 43 44 44 44 44 43 43 42 41 41 40 39 38 36 34 33 35 37 36 35 36 35 35 36 34 36 37 38 41 45 43 43 45 45 44 42 40 42 44 45 46 43 37 34 36 38 38 36 37 39 38 42 48 47 41 36 37 44 55 61 63 64 68 72 75 78 82 83 81 81
28 28 28 28 28 29 30 31 33 35 37 39 40 41 43 44 45 45 44 43 43 43 44 44 43 44 44 41 39 38 36 36 37 37 36 36 36 35 36 35 35 35 37 41 42 40 41 43 44 44 43 40 41 42 42 40 35 30 29 32 37 37 34 34 36 36 39 43 44 41 37 36 42 53 58 60 64 68 71 73 78 84 85 83 83
27 26 26 27 27 28 29 31 33 36 38 40 41 42 43 44 44 43 42 42 43 43 44 44 43 43 44 43 42 42 40 38 38 38 37 37 36 36 36 35 34 34 35 37 38 39 41 41 42 44 43 41 37 33 30 26 22 22 24 26 30 32 30 31 33 33 35 39 41 40 38 36 41 50 57 59 63 69 71 73 79 87 89 85 83
25 25 25 26 26 28 30 32 34 37 39 40 41 42 43 43 41 39 37 37 39 40 40 41 40 39 40 42 44 45 44 41 39 39 39 38 38 38 37 35 34 34 35 36 37 38 39 39 40 41 39 37 32 26 22 19 16 19 21 22 26 28 27 29 31 32 33 35 39 38 36 36 40 48 56 60 65 71 73 75 80 87 87 84 82
24 24 24 25 26 28 31 33 35 37 39 40 40 40 40 38 35 34 34 36 37 37 38 39 39 38 37 39 41 43 44 44 41 39 40 40 40 41 40 40 39 38 39 39 38 37 38 39 40 39 37 35 30 24 19 16 15 19 21 23 26 27 27 29 30 32 36 36 35 35 33 35 40 48 56 62 68 74 77 80 84 87 86 84 83
23 23 23 24 26 29 31 34 35 37 38 38 38 38 37 34 31 31 34 35 36 37 37 38 39 39 37 37 38 38 40 42 42 41 40 40 40 41 42 43 43 43 43 44 42 40 39 40 41 41 41 42 37 29 23 19 18 22 25 24 25 27 28 29 29 30 35 32 29 32 35 37 40 49 58 63 69 76 80 82 88 91 89 86 84
22 22 23 24 26 29 31 34 35 36 36 36 36 36 35 31 28 29 32 35 37 38 38 38 38 38 38 38 38 37 37 38 40 40 40 41 40 40 41 41 42 43 44 45 45 43 41 40 41 41 43 46 44 35 27 24 21 23 27 27 27 29 31 32 32 31 31 27 23 29 38 41 41 48 59 65 68 74 80 84 89 92 90 87 84
22 21 22 23 26 28 31 33 34 34 34 34 34 34 32 29 26 27 31 34 37 39 39 38 38 37 38 38 38 38 37 36 36 38 40 41 40 39 39 39 41 42 43 44 45 45 45 45 45 45 44 46 48 40 29 24 22 21 25 29 28 29 34 36 36 34 31 27 24 27 34 40 46 51 60 68 70 73 81 86 90 92 90 89 88
22 21 22 23 25 28 30 32 33 33 32 32 33 32 31 28 26 27 31 33 36 37 36 36 37 37 37 38 39 39 37 36 36 37 39 41 42 41 40 39 40 40 40 41 43 44 46 48 49 49 47 46 50 47 35 28 27 23 23 26 28 29 34 38 39 37 32 27 26 28 32 36 49 57 63 70 72 75 82 88 91 92 91 91 91
22 22 22 24 25 27 29 31 32 32 31 31 32 32 31 30 27 29 32 33 36 37 37 36 37 37 37 38 40 41 40 38 37 36 36 39 41 41 40 42 43 43 43 43 42 42 44 46 47 47 46 46 49 50 43 36 32 28 25 27 28 31 36 39 39 38 32 27 26 29 34 36 48 62 65 71 75 77 83 89 92 94 94 92 91
21 22 23 24 25 27 28 30 31 31 29 30 32 33 32 30 28 31 33 34 36 37 38 37 36 36 37 37 39 40 40 40 38 36 36 36 38 40 42 44 45 47 48 46 43 44 45 46 46 45 42 41 44 47 46 42 38 33 31 32 31 32 36 38 40 40 32 28 26 27 33 36 49 65 65 69 76 77 81 89 93 94 94 93 91
21 22 23 24 25 27 28 29 30 30 29 30 32 33 31 29 29 32 34 36 37 38 40 40 38 36 36 36 38 39 40 40 38 37 36 36 38 41 43 45 46 48 49 46 42 43 44 45 45 44 41 38 40 43 44 43 42 39 36 35 33 32 34 34 39 40 33 30 28 25 31 35 47 66 62 64 75 77 78 85 90 93 93 91 89
20 21 23 24 24 26 27 27 27 28 29 30 32 33 31 28 29 33 35 37 40 41 44 44 42 40 40 38 38 39 40 40 39 38 37 37 39 42 42 43 46 48 50 48 44 41 42 42 42 39 37 36 36 40 43 43 42 40 38 36 33 33 33 32 36 39 36 35 31 24 30 33 42 63 61 60 68 73 78 82 85 89 89 86 85
21 21 22 24 25 25 26 26 26 27 29 30 31 32 30 28 29 32 35 39 44 46 48 48 46 44 42 39 36 37 39 40 39 38 38 37 39 41 41 41 44 45 46 47 45 41 39 39 38 36 35 34 32 35 40 42 42 42 40 38 35 34 33 31 33 35 36 39 36 25 29 31 38 60 65 62 54 57 72 79 80 83 83 82 81
Wind_Direction
323 326 328 330 330 329 329 328 329 328 328 328 327 328 328 328 328 328 328 327 325 324 323 322 321 320 319 317 316 315 313 310 307 302 297 291 286 281 275 271 269 268 268 267 266 263 262 262 264 265 263 258 255 253 253 253 252 254 257 256 254 253 254 253 250 247 246 244 240 238 237 233 229 226 223 222 224 224 224 226 228 229 228 227 224
326 328 329 330 329 328 328 328 328 327 326 325 324 325 325 325 325 326 326 325 325 324 322 320 319 318 317 316 315 314 313 311 309 306 303 298 294 289 284 278 273 269 267 267 267 265 263 260 259 261 262 260 257 254 253 253 253 253 256 257 255 254 253 253 253 252 248 241 239 241 239 232 227 228 228 228 226 225 226 228 229 229 227 228 225
327 329 329 328 328 327 327 326 325 324 323 322 322 322 322 322 322 322 322 321 321 321 320 319 318 316 315 314 313 312 312 311 309 308 306 303 299 295 291 286 280 274 269 267 266 265 264 261 259 257 258 260 258 256 254 253 253 253 254 255 255 256 253 251 253 251 245 241 242 244 239 232 228 228 228 228 226 226 227 228 229 227 227 228 227
326 327 327 326 326 325 324 323 322 321 321 320 320 320 319 319 318 319 319 318 318 318 317 317 316 315 314 313 312 311 311 311 310 309 308 305 303 300 296 292 286 281 275 269 266 265 264 262 260 257 255 257 258 257 255 253 253 252 253 253 255 257 255 251 251 251 247 244 244 243 238 232 230 228 226 227 226 225 226 228 227 224 226 226 225
323 324 324 324 322 321 320 320 319 319 319 319 319 319 319 319 318 318 318 318 318 317 317 316 316 315 314 313 312 311 310 310 310 310 309 309 307 304 301 298 293 288 282 276 270 266 264 263 261 259 256 255 256 257 256 255 254 253 252 253 254 256 256 252 249 250 250 247 244 241 236 231 230 228 224 223 224 224 225 227 224 223 226 225 225
320 321 321 319 317 317 317 318 319 319 319 319 318 319 318 318 318 317 317 317 317 318 318 317 317 315 314 313 313 313 312 311 311 311 310 310 308 306 305 303 300 295 289 283 277 271 266 264 262 261 258 255 254 255 256 256 254 254 253 252 253 254 256 255 251 249 248 246 244 240 235 232 230 229 226 223 221 221 222 223 223 223 225 225 225
318 318 316 315 314 315 317 318 319 319 319 319 319 319 319 319 319 318 318 317 317 317 317 316 316 315 315 314 314 313 312 312 312 312 312 311 309 307 306 305 303 301 297 291 285 279 272 267 264 262 261 258 254 253 254 255 255 254 253 252 251 252 255 256 252 250 248 246 243 239 235 233 230 227 227 225 221 219 220 220 221 222 224 224 223
315 314 313 312 313 314 316 317 318 319 319 320 321 321 321 321 321 321 321 320 319 318 318 317 316 315 315 315 315 314 312 313 313 313 312 312 311 310 309 306 304 303 301 298 293 286 280 274 269 265 263 261 258 254 252 252 254 254 253 252 251 250 251 253 253 251 250 249 245 240 235 232 230 227 226 223 220 220 222 223 222 223 225 224 222
312 311 310 311 312 313 314 316 318 319 320 321 321 321 322 322 322 322 322 321 320 321 320 319 317 316 316 316 316 315 313 313 313 313 313 312 311 311 311 309 306 304 302 300 297 293 287 281 275 269 266 263 260 257 253 251 251 252 252 251 250 249 249 250 252 251 249 248 246 242 236 232 230 228 226 222 220 220 222 226 226 225 225 223 222
310 309 309 310 311 311 312 315 317 319 320 320 320 320 320 320 321 320 320 320 320 320 319 318 317 317 317 318 318 317 316 316 316 315 315 314 314 313 311 310 309 307 305 302 299 295 292 288 283 276 270 266 263 259 256 252 250 250 251 251 249 248 248 248 249 249 249 247 246 244 238 234 231 228 226 223 221 220 221 225 227 224 223 223 222
309 309 309 309 310 310 311 313 315 317 318 318 319 319 319 319 319 319 318 318 317 317 317 317 317 317 318 319 320 319 319 318 317 317 317 317 317 314 311 311 312 311 309 306 302 296 292 290 287 283 278 272 268 264 259 254 250 249 249 249 249 248 247 247 248 247 248 247 245 245 239 235 232 229 226 223 222 221 221 224 225 222 221 221 220
309 308 308 308 308 308 309 312 315 317 318 318 318 318 318 318 317 318 317 316 316 317 317 317 317 318 320 320 319 319 319 318 317 318 319 318 316 313 310 312 314 313 311 309 306 301 296 292 287 285 283 279 275 270 265 258 252 249 248 248 248 249 248 246 248 247 246 247 246 245 241 236 234 231 227 224 222 221 221 221 222 221 219 218 217
307 306 306 306 306 307 308 312 315 317 317 317 317 317 317 317 317 316 316 316 316 317 316 318 320 321 321 319 319 319 318 319 318 318 320 320 317 313 311 312 313 312 310 309 308 305 302 298 292 287 283 281 280 276 271 266 258 251 248 248 247 248 249 247 247 247 245 245 244 244 243 238 236 232 227 223 221 221 221 219 219 219 216 215 214
305 306 306 306 306 306 307 311 314 316 316 315 316 316 316 316 316 315 315 315 314 315 315 317 320 320 320 320 320 320 317 318 321 323 325 319 312 307 306 308 310 308 308 307 306 304 302 300 297 293 288 284 281 280 277 272 266 258 249 247 247 248 249 247 248 247 244 243 243 243 242 241 239 232 224 221 221 221 220 220 218 216 215 213 212
306 306 306 305 304 304 306 310 314 315 315 315 315 315 315 314 314 314 314 313 312 312 312 314 315 316 320 318 317 318 316 319 326 313 308 304 303 303 303 304 306 306 307 306 305 303 300 298 295 294 292 289 285 282 280 275 270 265 257 250 247 248 250 248 248 247 243 241 242 242 241 244 242 231 222 220 221 220 220 221 219 215 213 211 210
307 305 303 302 302 304 307 311 315 316 315 315 314 314 314 313 313 313 312 311 310 309 308 309 310 313 316 312 313 313 308 313 312 305 305 307 306 305 302 302 304 305 304 303 301 299 297 296 293 290 287 286 285 282 279 275 269 265 263 257 251 249 250 249 247 246 243 240 241 242 240 244 244 230 222 222 222 221 220 220 219 216 212 210 210
305 303 300 300 302 305 308 313 316 316 315 314 314 314 314 314 312 311 310 308 307 306 305 306 306 306 306 307 310 303 295 307 312 308 308 308 305 303 301 301 303 303 303 301 299 297 297 296 294 290 287 284 282 278 275 273 268 262 261 261 257 252 251 250 248 246 244 240 239 241 240 242 243 234 227 225 224 221 220 219 217 214 211 209 211
302 300 299 300 302 304 308 314 317 316 315 315 315 315 314 313 312 310 309 307 305 304 303 304 302 301 301 300 296 289 293 303 307 305 305 305 303 303 302 299 297 299 298 296 296 296 294 292 290 289 288 286 282 276 271 269 266 261 256 257 258 256 252 251 250 247 245 243 240 239 240 240 240 240 235 229 225 222 218 216 215 212 210 210 210
299 297 296 297 299 303 309 315 317 316 314 314 314 314 313 312 311 310 307 305 303 302 301 300 298 297 298 298 295 291 291 293 294 297 302 304 303 302 301 299 299 299 294 289 289 290 289 288 288 289 288 285 281 277 273 269 264 258 253 249 249 251 252 252 252 250 247 245 242 238 238 239 238 240 240 232 224 219 216 214 213 212 211 210 209
295 294 294 296 300 307 314 317 317 315 313 313 313 312 311 311 309 308 306 304 302 299 297 295 293 292 293 293 293 292 289 285 282 282 288 295 299 299 299 299 299 299 296 290 284 282 284 285 285 285 284 279 278 279 277 274 268 260 254 248 244 245 248 249 251 251 249 247 245 240 237 238 238 237 240 235 222 215 214 214 213 213 212 211 209
293 293 294 299 306 312 316 317 315 313 312 312 311 311 310 309 307 306 304 302 299 296 293 291 288 287 288 289 288 287 286 281 275 274 274 281 290 294 296 296 295 294 294 292 286 280 278 279 278 277 279 278 277 278 277 275 271 264 258 251 246 245 246 247 248 249 250 247 246 244 239 237 238 236 237 239 227 216 212 213 216 215 213 211 210
291 293 298 304 310 313 313 313 311 310 310 310 309 309 308 307 305 304 302 300 297 294 290 288 285 283 283 282 281 280 279 278 275 271 271 272 278 286 292 292 289 289 288 286 284 279 274 273 273 272 273 275 275 273 271 270 271 270 265 256 250 246 246 246 245 246 248 248 246 245 243 238 237 238 237 237 234 223 214 212 217 217 212 209 208
291 295 301 307 310 310 309 309 308 307 308 308 308 307 306 304 303 301 300 298 296 293 290 287 284 282 280 276 274 273 270 271 273 271 270 271 272 277 285 288 287 285 283 282 279 276 274 272 270 270 270 270 270 269 269 268 267 267 265 259 252 246 242 240 240 242 245 247 246 244 244 241 236 238 238 235 235 229 218 214 215 214 212 209 207
296 302 307 309 308 307 307 307 307 307 306 306 306 305 303 302 301 299 299 297 295 293 289 287 283 280 278 273 269 269 267 267 271 272 271 271 271 272 277 284 287 286 283 281 277 273 273 271 269 268 269 268 266 266 266 265 264 262 261 259 253 244 238 236 236 235 238 244 246 244 243 242 237 236 237 234 230 224 218 217 214 213 213 211 208
302 307 309 309 308 308 308 307 307 307 306 306 305 303 302 301 300 299 298 297 295 292 289 287 283 279 276 272 267 266 266 266 266 269 271 268 265 268 272 276 280 283 285 282 275 272 269 268 267 268 269 266 263 264 264 264 265 264 264 264 258 247 238 238 239 235 232 236 243 244 242 242 239 234 234 231 226 221 218 219 218 217 216 211 208
304 307 308 308 308 309 309 308 308 308 307 306 305 304 303 301 300 300 298 297 295 292 291 288 283 279 277 273 270 267 266 267 267 268 267 263 261 266 271 273 273 276 281 280 275 272 267 264 266 268 268 266 264 264 264 264 266 265 267 269 265 255 244 241 243 243 239 234 237 242 242 241 238 233 231 228 225 221 219 220 220 218 215 209 206
305 307 307 308 309 309 309 309 309 309 308 308 307 306 305 303 302 301 300 299 296 293 292 289 284 282 279 275 272 271 268 265 266 267 262 257 259 263 266 271 272 272 274 276 275 271 266 265 267 267 266 265 264 264 264 264 266 268 268 268 266 260 252 247 246 247 247 239 233 238 242 241 236 231 228 225 223 220 216 216 218 216 213 208 202
309 310 310 310 312 311 311 311 311 311 311 311 310 309 307 304 303 302 300 299 296 294 292 288 285 284 282 276 270 270 269 265 262 261 257 253 257 262 262 261 265 269 270 272 272 270 268 266 267 268 265 263 262 263 266 266 267 268 267 265 263 259 255 251 248 246 247 242 234 234 239 239 234 229 225 221 219 218 213 211 214 213 209 205 201
311 312 312 313 314 314 314 314 315 315 314 313 312 310 307 304 302 300 299 297 293 292 290 286 286 286 283 277 271 269 269 266 262 256 251 255 260 261 261 256 254 260 265 269 268 268 269 265 266 269 266 262 262 262 263 264 263 263 264 266 265 259 254 251 248 245 246 242 235 233 237 236 232 227 222 217 215 217 215 211 211 211 205 202 202
312 312 314 315 316 316 316 317 317 317 315 313 311 309 307 306 303 301 299 296 292 290 289 287 286 286 283 279 272 269 268 266 263 258 250 257 264 261 260 257 252 253 258 264 266 266 267 267 266 268 266 263 263 262 263 264 263 262 263 267 268 262 256 251 245 242 243 242 235 233 235 233 227 222 217 216 214 214 216 212 209 207 203 199 199
313 314 316 317 318 318 318 318 317 316 315 313 312 311 311 309 307 304 301 296 291 288 287 285 283 284 282 278 273 268 266 263 263 263 256 258 264 260 256 254 250 251 254 259 265 265 264 269 269 266 265 264 265 267 268 264 264 266 267 269 270 267 261 253 245 240 241 243 236 232 232 228 223 217 212 213 212 209 212 212 207 201 198 196 195
312 315 317 317 318 319 318 318 317 316 315 315 315 314 313 312 309 306 302 296 289 286 284 280 278 280 280 277 272 267 264 262 262 263 259 257 259 255 251 250 249 250 252 257 266 266 263 267 270 266 263 265 266 267 267 265 265 267 267 270 272 272 267 258 248 241 241 244 235 228 229 229 224 218 212 210 211 210 209 209 206 200 195 193 193
312 315 317 318 319 319 318 318 318 318 318 317 318 316 315 313 310 307 303 297 291 287 284 281 277 278 277 273 270 267 266 265 263 261 259 256 255 253 252 253 251 250 252 258 265 269 269 268 267 265 262 265 270 267 264 266 267 266 266 268 271 272 272 264 251 241 241 244 236 225 226 228 224 219 213 211 211 210 207 205 204 201 198 194 193
313 316 318 319 319 319 319 319 318 319 320 319 318 316 314 312 310 307 305 301 296 291 288 285 281 277 273 269 269 270 268 266 263 260 258 257 255 254 253 255 255 250 250 254 258 266 274 269 263 265 262 262 271 270 261 260 263 264 264 267 270 272 274 271 259 245 240 242 237 227 225 226 224 218 214 212 209 205 204 203 202 200 199 198 196
314 317 319 319 318 318 318 319 319 320 320 319 317 316 313 312 309 307 306 303 300 296 292 289 285 279 271 267 270 271 268 264 262 260 259 259 256 255 254 255 256 250 249 255 259 267 276 272 265 267 264 258 266 271 265 262 263 263 262 266 270 269 269 274 271 255 244 241 236 227 223 225 227 222 215 212 208 202 200 202 202 199 199 198 199
316 318 318 318 318 318 318 319 320 319 319 319 317 316 315 313 311 309 307 305 303 299 295 291 287 281 274 271 273 272 267 264 263 262 261 260 257 255 255 257 257 254 254 258 262 267 272 270 267 268 265 260 264 268 268 268 266 262 263 269 273 271 269 274 277 265 250 242 236 225 220 223 230 227 216 211 208 203 199 200 201 199 198 198 198
317 318 317 317 317 317 318 319 319 319 319 319 318 317 316 314 312 311 309 307 305 302 298 294 292 287 280 278 279 274 268 266 265 264 263 260 259 257 257 257 257 258 259 260 264 267 265 264 266 269 266 263 269 271 266 265 265 263 264 269 274 276 275 277 279 271 254 244 237 226 219 221 229 228 218 211 209 205 200 199 199 198 196 196 197
317 317 316 316 316 317 318 319 319 320 320 320 319 318 317 316 315 314 312 310 308 306 304 301 299 296 292 289 287 280 273 268 265 265 264 262 262 260 258 259 259 259 260 262 268 269 265 262 265 266 265 266 274 274 264 258 258 259 263 270 275 279 279 280 280 271 257 246 238 231 225 221 226 227 219 211 209 207 204 202 201 198 195 195 195
316 316 315 315 316 317 319 319 320 320 320 320 321 321 320 320 319 317 315 313 312 310 307 305 303 301 297 294 292 289 283 276 270 268 266 263 262 260 258 260 261 260 259 263 267 267 265 264 264 265 268 272 277 272 259 251 249 254 265 276 282 283 279 279 278 269 258 246 236 235 235 223 221 225 221 213 210 208 206 204 201 198 195 194 193
315 315 315 315 317 318 319 320 321 321 321 323 324 324 323 323 322 320 318 315 312 309 306 305 304 301 297 295 293 290 287 285 280 276 271 266 262 262 260 258 259 258 259 262 266 266 267 268 268 269 271 274 277 269 254 247 250 262 272 279 285 285 280 280 276 263 255 246 238 242 245 230 219 222 221 216 212 209 206 204 201 196 193 191 190
316 316 315 316 318 319 320 321 322 323 325 327 327 327 327 327 324 319 313 307 304 301 299 298 295 292 290 290 289 288 287 288 286 278 271 266 263 261 260 258 257 258 260 262 264 268 270 270 269 270 272 275 278 272 257 254 264 276 281 286 292 295 293 291 279 257 247 244 245 251 250 234 222 221 219 215 212 209 206 203 200 195 191 189 189
317 316 316 317 319 320 321 322 324 326 328 329 329 330 331 328 323 315 308 302 298 295 292 290 288 285 282 282 282 283 283 285 285 276 267 264 262 260 260 260 259 259 262 263 263 264 268 271 270 271 274 276 279 278 269 266 270 274 279 288 298 304 306 304 289 260 242 244 255 260 252 237 226 221 217 213 209 207 204 200 197 194 191 189 189
318 316 318 319 320 321 321 323 325 327 329 331 332 333 333 329 322 314 308 303 297 293 290 288 287 286 284 281 279 278 277 278 280 277 271 267 264 262 261 262 261 260 260 262 263 262 263 267 269 271 272 271 272 278 279 277 275 272 275 284 293 302 307 309 302 274 248 248 265 266 253 243 231 219 214 212 207 203 200 198 194 192 190 189 190
318 317 318 319 319 320 321 323 326 328 330 332 334 335 335 332 323 311 304 300 297 294 292 289 287 286 286 284 281 279 276 274 274 276 275 273 270 266 264 262 261 260 258 258 259 260 261 263 265 267 268 268 267 271 277 278 273 271 274 277 283 296 304 306 307 290 263 257 272 265 250 241 232 219 211 211 207 201 198 196 192 190 190 190 191
317 317 318 318 318 319 321 323 325 328 331 334 336 337 338 336 326 311 303 299 296 294 291 289 288 286 285 284 282 280 278 275 274 273 272 271 272 270 266 263 262 261 260 258 257 259 260 261 263 263 264 266 265 264 270 277 275 273 273 273 278 292 300 302 304 297 275 261 268 273 259 240 226 216 210 209 208 201 197 194 192 190 190 191 191
316 316 315 316 317 319 321 321 323 327 331 335 338 340 342 343 332 313 304 300 297 295 292 289 287 286 284 284 283 281 280 278 276 276 273 271 272 271 266 266 267 263 261 261 260 260 260 259 261 261 261 263 262 258 259 269 275 277 277 277 281 289 296 298 300 296 284 267 262 274 275 248 222 212 207 206 206 202 196 194 192 191 191 190 190
314 314 313 315 317 318 320 320 320 326 332 337 342 344 347 347 335 317 311 308 305 303 299 293 289 285 283 282 281 280 279 278 276 276 275 274 273 271 266 268 270 267 266 266 263 263 263 259 259 261 261 262 262 258 256 259 265 270 274 282 287 289 291 294 295 293 284 269 260 268 277 255 218 207 205 202 201 200 195 193 192 191 190 190 189
311 313 313 315 317 318 319 318 318 324 333 341 346 349 350 346 332 320 316 312 307 305 304 300 292 284 282 281 281 280 279 278 276 274 274 274 273 272 269 269 271 271 272 272 268 266 266 263 260 258 259 262 262 259 256 253 255 261 271 280 285 287 290 291 294 293 281 265 262 264 271 254 213 200 200 197 195 194 192 191 191 189 189 189 188
309 312 313 316 318 317 316 316 318 324 336 345 349 351 353 346 328 317 313 310 307 306 307 307 299 289 284 281 280 281 280 278 277 275 274 273 272 273 272 271 272 272 273 275 272 267 267 266 261 256 257 260 258 256 256 253 254 259 267 273 275 279 287 289 292 294 284 269 261 256 268 256 208 192 191 189 188 188 187 187 187 187 187 187 186
309 311 313 315 317 315 314 316 321 328 338 346 350 352 352 341 321 312 310 309 309 309 308 308 304 298 294 287 280 279 279 278 278 276 275 273 272 272 272 272 274 275 277 279 276 269 268 269 261 254 259 262 256 252 252 251 253 255 258 263 264 269 279 283 287 293 288 270 254 251 274 261 200 180 179 176 178 181 181 181 182 182 184 185 185
309 312 314 315 316 316 316 318 326 335 341 344 349 353 350 335 317 311 312 311 311 312 310 308 305 302 299 293 285 280 279 279 279 278 276 273 271 272 273 274 276 277 279 282 278 270 270 271 263 258 263 264 259 254 249 247 250 252 252 255 257 261 269 274 280 289 287 268 247 245 276 259 189 169 169 165 164 171 174 174 175 177 180 182 184